319  
ASUS41 KBGM 221910  
RWRBGM  
 
REGIONAL WEATHER ROUNDUP  
NATIONAL WEATHER SERVICE BINGHAMTON NY  
300 PM EDT WED MAY 22 2019  
 
NOTE: "FAIR" INDICATES FEW OR NO CLOUDS BELOW 12,000 FEET WITH NO  
SIGNIFICANT WEATHER AND/OR S TO VISIBILITY
.  
 
* = STATION(S) THAT DOES NOT REPORT PRECIPITATION, SUCH AS RAIN,  
SNOW, ETC, ALSO NO THUNDER OR FOG.
 
 
NYZ009-015>018-022>025-036-037-044>046-055>057-062-222000   
..CENTRAL NEW YORK
 
 
 
CITY SKY/WX TMP DP RH WIND PRES REMARKS
 
BINGHAMTON FAIR 66 33 29 SE5 30.23F  
CORTLAND FAIR 68 37 32 CALM 30.23S  
DANSVILLE FAIR 69 39 33 S7 30.20F  
ELMIRA FAIR 70 39 32 VRB5 30.21F  
ENDICOTT CLEAR 68 34 28 NW3 30.23R  
ITHACA FAIR 69 41 36 NW6 30.24S  
HAMILTON SUNNY 66 30 26 N3 30.23F  
HORNELL MOSUNNY 66 36 32 SE8 30.25S  
MONTICELLO FAIR 70 33 25 VRB5 30.24R  
NORWICH SUNNY 68 36 30 N3 30.22F  
ONEONTA SUNNY 64 28 25 N3 30.24R  
PENN YAN FAIR 68 37 32 CALM 30.23S  
ROME FAIR 68 38 33 W3 30.22F  
SENECA FALLS CLEAR 66 37 34 SE5 30.23F  
SIDNEY SUNNY 68 34 28 NE5 30.22F  
SKANEATELES FAIR 68 37 32 NE3 30.23F  
SYRACUSE CLOUDY 69 35 28 CALM 30.23F  

 
 
PAZ038>040-043-044-047-048-072-222000   
..NORTHEAST PENNSYLVANIA
 
 
 
CITY SKY/WX TMP DP RH WIND PRES REMARKS
 
HAZLETON FAIR 68 32 26 W3 30.27S  
SCRANTON FAIR 71 35 26 NW5 30.22F  
TOWANDA MOCLDY 70 36 28 NW5 30.24R  

 

 
KEY  
WCI = WIND CHILL INDEX  
VSB = VISIBILITY  
HX = HEAT INDEX  

 
 
 
CLICK HERE TO GO TO PREVIOUS BULLETINS.

The Nexlab NY Page
The Nexlab PA Page Main Text Page